Dewpoint
1 -1 -0 -0 -1 -1 -2 -3 -4 -6 -8 -13 -22 -28 -28 -21 -24 -25 -25 -24 -24 -25 -25 -25 -25 -13 -5
2 -1 -1 -1 -1 -1 -2 -3 -4 -5 -8 -13 -25 -27 -24 -15 -24 -25 -24 -24 -25 -25 -25 -25 -25 -24 -12
4 1 -2 -2 -1 -1 -2 -3 -4 -5 -9 -15 -25 -23 -15 -18 -25 -25 -24 -25 -24 -24 -24 -25 -23 -17 -14
4 3 0 -1 -2 -2 -3 -3 -4 -6 -10 -21 -20 -16 -11 -24 -24 -23 -24 -24 -23 -24 -25 -23 -22 -21 -22
4 3 1 1 0 -2 -3 -4 -5 -7 -15 -14 -12 -9 -19 -23 -23 -24 -23 -22 -23 -24 -23 -22 -22 -22 -22
4 4 4 3 0 -2 -4 -5 -7 -12 -11 -5 -6 -16 -22 -23 -23 -22 -21 -22 -24 -24 -22 -21 -21 -21 -22
5 5 4 3 1 -2 -4 -6 -11 -8 -2 -7 -18 -21 -22 -23 -22 -21 -22 -23 -23 -22 -21 -21 -21 -21 -22
4 4 2 1 -1 -3 -6 -11 -10 -2 -6 -17 -20 -22 -22 -21 -21 -23 -23 -22 -21 -21 -21 -21 -21 -21 -21
3 1 -3 -4 -6 -10 -11 -3 -4 -9 -15 -19 -21 -22 -21 -21 -23 -22 -21 -20 -21 -20 -21 -21 -21 -21 -21
1 -3 -8 -12 -12 -5 -3 -5 -10 -12 -16 -19 -22 -20 -22 -24 -23 -21 -20 -21 -20 -20 -21 -21 -21 -21 -21
-4 -12 -14 -8 -3 -2 -3 -8 -6 -18 -22 -21 -21 -21 -22 -23 -23 -21 -20 -20 -20 -20 -21 -21 -21 -21 -21
-15 -14 -7 -2 -2 -3 -3 -7 -16 -18 -20 -20 -20 -21 -22 -21 -21 -21 -20 -20 -20 -20 -20 -20 -21 -22 -22
-12 -6 -3 -3 -2 -3 -9 -12 -18 -18 -19 -19 -20 -21 -20 -19 -19 -20 -20 -21 -20 -19 -19 -20 -21 -21 -22
-4 -4 -2 -3 -3 -6 -10 -11 -12 -17 -18 -20 -21 -20 -19 -19 -18 -19 -18 -18 -19 -19 -18 -19 -20 -20 -21
-3 -3 -3 -3 -5 -8 -7 -10 -16 -17 -19 -20 -19 -19 -19 -19 -19 -18 -18 -18 -17 -17 -17 -17 -19 -20 -20
-3 -3 -4 -6 -7 -6 -10 -15 -16 -17 -18 -18 -18 -18 -18 -19 -18 -18 -17 -17 -17 -17 -17 -16 -17 -20 -19
-4 -5 -6 -6 -6 -12 -14 -15 -16 -17 -18 -18 -18 -17 -16 -16 -17 -17 -17 -16 -15 -16 -16 -16 -16 -18 -18
Wind_Speed
20 23 28 31 35 33 29 26 23 20 19 18 16 14 14 14 15 17 16 14 16 16 17 18 18 17 17
21 22 26 28 31 32 31 27 25 22 20 19 16 15 16 17 16 17 16 16 18 18 19 20 20 20 19
24 23 25 26 30 31 31 28 26 24 22 19 18 17 18 17 18 17 17 19 19 19 20 20 20 19 18
27 25 25 26 29 31 33 30 27 24 22 19 19 19 19 18 17 18 19 19 20 20 21 20 19 20 21
31 30 28 29 31 31 30 28 26 25 22 20 21 20 19 18 19 20 20 20 20 20 20 20 20 22 24
35 35 32 31 28 29 31 30 24 25 21 22 21 19 18 18 21 21 20 20 21 19 19 19 23 23 24
37 35 35 32 27 29 33 30 25 20 16 17 17 17 19 20 21 21 20 19 19 16 20 20 23 24 25
33 27 23 23 24 26 27 26 23 20 19 17 17 17 19 19 20 21 19 15 15 19 20 22 24 25 25
26 23 21 22 23 26 28 22 20 19 17 18 17 15 16 18 20 17 13 14 18 20 21 22 23 25 27
27 27 25 23 25 25 18 18 18 14 17 17 15 12 10 14 16 11 15 19 19 21 21 22 21 25 27
32 29 30 30 26 19 16 15 18 19 14 13 13 13 13 14 16 16 17 17 20 21 21 20 22 23 27
32 34 31 26 19 14 17 18 18 17 15 15 15 14 15 15 16 16 17 18 20 21 19 22 22 24 23
35 33 25 19 20 19 17 17 16 16 16 14 14 15 14 16 17 19 19 19 19 17 23 23 25 26 27
28 26 24 20 20 19 18 17 17 17 14 13 13 13 14 15 18 19 19 20 18 20 25 26 25 26 26
26 21 19 22 20 18 19 17 18 15 14 12 12 13 14 15 19 19 19 18 19 22 26 28 26 27 28
22 22 23 21 20 19 18 17 15 14 12 12 13 14 15 16 16 14 17 18 19 22 26 29 33 30 31
22 19 20 20 17 19 17 15 15 13 13 13 13 14 15 16 18 16 14 18 22 25 27 29 34 35 35
Wind_Direction
235 236 229 229 229 229 232 235 238 242 249 256 272 278 282 289 294 291 296 302 300 302 301 300 300 303 303
238 232 225 225 228 230 232 235 238 242 248 258 271 276 279 293 287 290 296 297 296 298 298 301 301 298 302
237 230 226 223 225 225 228 232 235 241 247 259 267 274 283 286 286 288 289 291 294 296 296 299 299 297 298
232 233 228 226 226 225 224 227 232 237 245 254 265 273 282 278 280 282 286 289 292 292 297 298 296 296 300
230 231 229 228 230 228 226 228 229 234 241 257 266 272 272 271 277 282 286 287 289 294 296 295 297 301 304
231 235 240 240 232 228 223 219 218 230 242 261 264 264 264 273 278 281 283 285 289 294 294 298 302 302 306
239 240 241 241 237 228 223 223 224 231 254 250 254 255 266 271 276 280 284 285 289 291 298 300 302 305 304
239 244 247 243 236 231 222 215 225 243 242 239 252 256 265 274 277 281 285 279 287 296 300 303 303 301 306
226 223 219 225 223 208 204 217 231 237 239 240 252 261 267 273 278 279 270 286 296 298 302 301 302 305 309
209 211 212 201 191 200 219 229 230 244 245 241 255 255 272 270 275 258 279 292 292 298 301 302 305 310 311
204 198 190 191 197 207 226 237 253 239 248 243 251 256 254 265 274 279 281 287 296 297 299 302 309 309 311
193 189 191 193 208 226 242 240 238 244 244 249 252 256 260 269 279 283 291 297 299 300 300 305 306 308 309
191 191 201 225 228 226 220 229 236 247 245 245 253 261 268 277 285 292 302 297 300 301 306 310 313 312 311
196 211 210 207 222 214 216 228 239 241 247 250 256 264 273 282 289 296 302 296 300 300 303 308 312 311 312
201 197 216 216 207 203 221 229 233 242 248 255 264 268 276 284 288 296 296 293 301 304 306 309 312 312 312
207 222 213 203 206 216 222 226 235 245 253 266 273 279 284 284 287 292 292 296 301 305 309 312 313 315 315
208 204 197 210 210 217 222 227 237 250 261 268 270 274 282 291 298 301 297 305 312 313 314 314 311 314 315
Height
1510 1511 1515 1518 1522 1525 1528 1530 1533 1534 1535 1535 1535 1535 1534 1532 1532 1531 1530 1529 1528 1526 1525 1522 1520 1518 1518
1505 1506 1509 1513 1516 1520 1523 1525 1528 1529 1530 1530 1529 1529 1529 1527 1527 1526 1525 1525 1523 1521 1520 1518 1515 1513 1512
1501 1502 1504 1507 1510 1514 1516 1519 1523 1524 1525 1526 1525 1525 1524 1523 1523 1521 1520 1520 1518 1516 1514 1512 1510 1509 1506
1494 1497 1499 1502 1505 1507 1510 1513 1516 1519 1520 1521 1521 1520 1520 1519 1518 1517 1516 1515 1513 1510 1508 1507 1505 1504 1501
1486 1489 1493 1495 1498 1500 1506 1509 1510 1513 1514 1516 1516 1515 1515 1514 1513 1512 1511 1510 1507 1505 1504 1502 1500 1497 1495
1479 1483 1486 1491 1493 1494 1501 1502 1504 1507 1509 1509 1510 1509 1510 1509 1508 1507 1506 1503 1500 1498 1498 1496 1494 1491 1488
1474 1477 1480 1485 1487 1489 1494 1497 1499 1502 1502 1503 1505 1505 1504 1504 1503 1502 1502 1498 1496 1494 1492 1490 1488 1485 1482
1468 1473 1477 1479 1481 1486 1490 1493 1496 1497 1497 1499 1500 1500 1499 1499 1499 1497 1495 1493 1491 1489 1488 1485 1482 1478 1475
1462 1467 1470 1473 1476 1480 1485 1488 1490 1490 1492 1494 1495 1496 1496 1495 1493 1491 1490 1488 1486 1484 1482 1480 1475 1470 1469
1455 1460 1464 1468 1473 1477 1480 1483 1485 1486 1487 1490 1491 1493 1492 1490 1488 1487 1486 1484 1482 1478 1477 1474 1470 1465 1462
1449 1453 1460 1464 1467 1471 1475 1477 1480 1480 1483 1485 1486 1486 1486 1485 1483 1483 1482 1479 1475 1473 1472 1469 1466 1463 1457
1444 1451 1456 1459 1463 1466 1470 1473 1475 1476 1479 1481 1481 1480 1479 1478 1479 1478 1477 1474 1470 1467 1465 1464 1461 1457 1455
1440 1444 1451 1455 1460 1463 1466 1469 1469 1472 1474 1475 1476 1476 1474 1474 1474 1473 1470 1468 1466 1464 1461 1458 1454 1451 1446
1436 1439 1446 1451 1454 1457 1461 1464 1466 1468 1470 1471 1470 1471 1469 1469 1468 1467 1465 1463 1463 1460 1454 1452 1450 1447 1442
1436 1438 1441 1446 1449 1453 1456 1460 1463 1464 1465 1465 1466 1465 1463 1463 1462 1462 1459 1457 1455 1453 1448 1443 1442 1440 1437
1433 1436 1437 1441 1447 1450 1454 1456 1459 1460 1461 1460 1462 1462 1459 1459 1457 1455 1455 1453 1452 1447 1443 1436 1433 1433 1430
1429 1432 1437 1441 1444 1448 1452 1452 1455 1455 1456 1457 1457 1457 1457 1456 1454 1451 1450 1450 1443 1440 1437 1433 1427 1424 1421